TimeCST,TemperatureF,Dew PointF,Humidity,Sea Level PressureIn,VisibilityMPH,Wind Direction,Wind SpeedMPH,Gust SpeedMPH,PrecipitationIn,Events,Conditions,WindDirDegrees,DateUTC
12:53 AM,16.0,10.0,77,30.46,10.0,North,8.1,-,N/A,,Clear,350,2013-01-21 06:53:00
1:53 AM,15.1,10.0,80,30.44,10.0,North,5.8,-,N/A,,Clear,10,2013-01-21 07:53:00
2:53 AM,14.0,9.0,80,30.45,10.0,NNW,5.8,-,N/A,,Partly Cloudy,340,2013-01-21 08:53:00
3:53 AM,12.0,8.1,84,30.45,10.0,NW,4.6,-,N/A,,Clear,320,2013-01-21 09:53:00
4:53 AM,12.0,7.0,80,30.45,10.0,Calm,Calm,-,N/A,,Clear,0,2013-01-21 10:53:00
5:53 AM,14.0,9.0,80,30.45,10.0,WNW,4.6,-,N/A,,Clear,300,2013-01-21 11:53:00
6:53 AM,16.0,10.0,77,30.45,10.0,NNW,8.1,-,N/A,,Mostly Cloudy,340,2013-01-21 12:53:00
7:40 AM,15.8,8.6,73,30.42,10.0,North,11.5,-,N/A,,Overcast,10,2013-01-21 13:40:00
7:53 AM,16.0,7.0,68,30.47,10.0,NNW,9.2,-,N/A,,Overcast,340,2013-01-21 13:53:00
8:53 AM,16.0,3.9,59,30.48,10.0,North,15.0,-,N/A,,Overcast,350,2013-01-21 14:53:00
9:53 AM,14.0,1.0,56,30.51,10.0,North,13.8,-,N/A,,Overcast,360,2013-01-21 15:53:00
10:53 AM,16.0,-2.0,45,30.51,10.0,NNW,12.7,-,N/A,,Overcast,340,2013-01-21 16:53:00
11:53 AM,15.1,-2.9,45,30.51,10.0,North,12.7,-,N/A,,Overcast,360,2013-01-21 17:53:00
12:53 PM,15.1,-5.1,41,30.48,10.0,North,11.5,-,N/A,,Overcast,360,2013-01-21 18:53:00
1:53 PM,15.1,-4.0,43,30.47,10.0,NNW,5.8,-,N/A,,Overcast,340,2013-01-21 19:53:00
2:53 PM,16.0,-2.9,43,30.46,10.0,NW,6.9,-,N/A,,Overcast,320,2013-01-21 20:53:00
3:53 PM,16.0,-4.0,41,30.45,10.0,WNW,11.5,-,N/A,,Overcast,300,2013-01-21 21:53:00
4:53 PM,15.1,-0.9,49,30.45,10.0,NNW,10.4,-,N/A,,Overcast,330,2013-01-21 22:53:00
5:53 PM,15.1,-0.0,51,30.44,10.0,North,8.1,-,N/A,,Overcast,350,2013-01-21 23:53:00
6:53 PM,15.1,1.9,56,30.44,10.0,NNW,6.9,-,N/A,,Overcast,340,2013-01-22 00:53:00
7:53 PM,15.1,1.0,54,30.45,10.0,North,5.8,-,N/A,,Overcast,360,2013-01-22 01:53:00
8:53 PM,14.0,3.0,62,30.45,10.0,NNW,6.9,-,0.00,Snow,Light Snow,340,2013-01-22 02:53:00
9:53 PM,14.0,-0.0,54,30.46,10.0,North,6.9,-,0.00,,Overcast,350,2013-01-22 03:53:00
10:53 PM,14.0,-2.0,49,30.45,10.0,North,4.6,-,N/A,,Overcast,10,2013-01-22 04:53:00
11:53 PM,14.0,-0.9,52,30.45,10.0,Calm,Calm,-,0.00,Snow,Light Snow,0,2013-01-22 05:53:00